TimeEST,TemperatureF,Dew PointF,Humidity,Sea Level PressureIn,VisibilityMPH,Wind Direction,Wind SpeedMPH,Gust SpeedMPH,PrecipitationIn,Events,Conditions,WindDirDegrees,DateUTC
12:13 AM,31.8,29.8,92,29.58,10.0,WNW,5.8,-,N/A,,Clear,290,2014-02-19 05:13:00
12:33 AM,31.1,29.5,94,29.59,7.0,Calm,Calm,-,N/A,,Clear,0,2014-02-19 05:33:00
12:54 AM,28.0,26.6,94,29.59,2.0,Calm,Calm,-,N/A,,Clear,0,2014-02-19 05:54:00
1:14 AM,25.5,24.4,96,29.60,1.0,Calm,Calm,-,N/A,,Mist,0,2014-02-19 06:14:00
1:34 AM,25.2,24.4,97,29.60,0.2,Calm,Calm,-,N/A,Fog,Light Freezing Fog,0,2014-02-19 06:34:00
1:54 AM,27.0,26.2,97,29.60,0.2,Calm,Calm,-,N/A,Fog,Light Freezing Fog,0,2014-02-19 06:54:00
2:14 AM,26.4,25.7,97,29.61,0.5,Calm,Calm,-,N/A,Fog,Light Freezing Fog,0,2014-02-19 07:14:00
2:34 AM,24.1,23.2,96,29.60,0.5,Calm,Calm,-,N/A,Fog,Light Freezing Fog,0,2014-02-19 07:34:00
2:54 AM,26.4,25.7,97,29.61,0.2,Calm,Calm,-,N/A,Fog,Light Freezing Fog,0,2014-02-19 07:54:00
3:14 AM,26.8,25.9,96,29.60,3.0,Calm,Calm,-,N/A,,Mostly Cloudy,0,2014-02-19 08:14:00
3:35 AM,28.4,27.5,96,29.60,3.0,Calm,Calm,-,N/A,,Overcast,0,2014-02-19 08:35:00
3:55 AM,29.5,28.6,96,29.60,4.0,Calm,Calm,-,N/A,,Mostly Cloudy,0,2014-02-19 08:55:00
4:15 AM,28.6,27.9,97,29.60,3.0,Calm,Calm,-,N/A,,Overcast,0,2014-02-19 09:15:00
4:35 AM,27.9,26.8,96,29.60,4.0,Calm,Calm,-,N/A,,Overcast,0,2014-02-19 09:35:00
4:55 AM,28.4,27.1,95,29.60,4.0,Calm,Calm,-,N/A,,Overcast,0,2014-02-19 09:55:00
5:15 AM,28.6,27.7,96,29.60,3.0,Calm,Calm,-,N/A,,Overcast,0,2014-02-19 10:15:00
5:35 AM,28.2,26.6,94,29.61,4.0,Calm,Calm,-,N/A,,Scattered Clouds,0,2014-02-19 10:35:00
5:55 AM,28.0,26.1,92,29.62,5.0,Calm,Calm,-,N/A,,Scattered Clouds,0,2014-02-19 10:55:00
6:15 AM,28.6,26.2,91,29.63,5.0,Calm,Calm,-,N/A,,Mostly Cloudy,0,2014-02-19 11:15:00
6:36 AM,29.3,27.3,92,29.64,5.0,Calm,Calm,-,N/A,,Mostly Cloudy,0,2014-02-19 11:36:00
6:56 AM,25.7,24.3,94,29.65,2.0,Calm,Calm,-,N/A,,Mostly Cloudy,0,2014-02-19 11:56:00
7:16 AM,26.6,24.8,93,29.66,4.0,Calm,Calm,-,N/A,,Clear,0,2014-02-19 12:16:00
7:36 AM,25.2,23.9,95,29.67,2.5,Calm,Calm,-,N/A,,Clear,0,2014-02-19 12:36:00
7:56 AM,23.7,22.3,94,29.67,1.0,Calm,Calm,-,N/A,,Mist,0,2014-02-19 12:56:00
8:11 AM,23.5,22.6,96,29.68,1.2,Calm,Calm,-,N/A,,Mist,0,2014-02-19 13:11:00
8:31 AM,23.0,22.1,96,29.70,0.8,Calm,Calm,-,N/A,,Mist,0,2014-02-19 13:31:00
8:51 AM,26.2,25.3,96,29.70,2.0,Calm,Calm,-,N/A,,Clear,0,2014-02-19 13:51:00
9:11 AM,28.0,27.1,96,29.71,3.0,Calm,Calm,-,N/A,,Clear,0,2014-02-19 14:11:00
9:31 AM,32.2,30.0,92,29.72,7.0,West,9.2,-,N/A,,Clear,280,2014-02-19 14:31:00
9:52 AM,33.8,29.5,84,29.74,7.0,West,5.8,-,N/A,,Clear,280,2014-02-19 14:52:00
10:12 AM,34.9,29.3,80,29.74,10.0,West,5.8,-,N/A,,Clear,260,2014-02-19 15:12:00
10:32 AM,34.9,28.9,79,29.75,10.0,WSW,4.6,-,N/A,,Clear,250,2014-02-19 15:32:00
10:52 AM,34.7,28.6,78,29.76,10.0,WSW,5.8,-,N/A,,Clear,240,2014-02-19 15:52:00
11:12 AM,34.9,28.4,77,29.77,10.0,West,4.6,-,N/A,,Clear,260,2014-02-19 16:12:00
11:32 AM,35.4,28.4,76,29.78,10.0,WSW,9.2,-,N/A,,Clear,250,2014-02-19 16:32:00
11:52 AM,35.1,28.4,77,29.79,10.0,WSW,8.1,-,N/A,,Clear,250,2014-02-19 16:52:00
12:12 PM,35.1,28.2,76,29.80,10.0,WSW,8.1,-,N/A,,Clear,250,2014-02-19 17:12:00
12:32 PM,35.6,28.2,75,29.80,10.0,WSW,8.1,-,N/A,,Clear,250,2014-02-19 17:32:00
12:53 PM,35.6,28.0,74,29.81,10.0,WSW,5.8,-,N/A,,Clear,250,2014-02-19 17:53:00
1:13 PM,35.4,27.3,72,29.81,10.0,SW,8.1,-,N/A,,Clear,230,2014-02-19 18:13:00
1:33 PM,35.8,27.1,71,29.82,10.0,SW,4.6,-,N/A,,Clear,220,2014-02-19 18:33:00
1:53 PM,35.2,26.8,71,29.82,10.0,SW,6.9,-,N/A,,Clear,220,2014-02-19 18:53:00
2:13 PM,35.1,26.6,71,29.82,10.0,SW,10.4,-,N/A,,Clear,230,2014-02-19 19:13:00
2:33 PM,35.2,26.6,71,29.83,10.0,WSW,9.2,-,N/A,,Clear,240,2014-02-19 19:33:00
2:53 PM,35.2,26.6,71,29.82,10.0,WSW,11.5,-,N/A,,Clear,240,2014-02-19 19:53:00
3:13 PM,35.2,26.4,70,29.83,10.0,SW,9.2,-,N/A,,Clear,230,2014-02-19 20:13:00
3:34 PM,35.2,26.8,71,29.83,10.0,South,6.9,-,N/A,,Clear,190,2014-02-19 20:34:00
3:54 PM,35.1,26.8,72,29.85,10.0,SSW,9.2,-,N/A,,Clear,200,2014-02-19 20:54:00
4:14 PM,35.2,27.5,73,29.86,10.0,SSW,9.2,-,N/A,,Clear,210,2014-02-19 21:14:00
4:34 PM,35.2,27.1,72,29.88,10.0,SW,9.2,-,N/A,,Clear,220,2014-02-19 21:34:00
4:54 PM,34.9,27.5,74,29.88,10.0,SSW,9.2,-,N/A,,Clear,210,2014-02-19 21:54:00
5:14 PM,34.7,27.7,76,29.89,10.0,SSW,5.8,16.1,N/A,,Clear,210,2014-02-19 22:14:00
5:34 PM,34.3,27.5,76,29.89,10.0,SSW,8.1,-,N/A,,Clear,210,2014-02-19 22:34:00
5:54 PM,34.2,27.0,75,29.89,10.0,South,4.6,-,N/A,,Clear,190,2014-02-19 22:54:00
6:14 PM,34.2,26.6,74,29.90,10.0,SSW,6.9,-,N/A,,Clear,210,2014-02-19 23:14:00
6:34 PM,33.8,27.1,77,29.90,10.0,SSW,6.9,-,N/A,,Clear,200,2014-02-19 23:34:00
6:55 PM,33.8,27.0,76,29.91,10.0,SSW,4.6,-,N/A,,Clear,210,2014-02-19 23:55:00
7:15 PM,34.7,26.1,71,29.92,10.0,SSW,4.6,-,N/A,,Clear,200,2014-02-20 00:15:00
7:35 PM,35.1,25.7,69,29.91,10.0,SW,5.8,-,N/A,,Clear,220,2014-02-20 00:35:00
7:55 PM,35.8,25.3,66,29.91,10.0,SSW,6.9,-,N/A,,Clear,210,2014-02-20 00:55:00
8:15 PM,36.1,25.3,65,29.91,10.0,SSW,5.8,-,N/A,,Clear,200,2014-02-20 01:15:00
8:35 PM,36.3,25.2,64,29.91,10.0,SSW,3.5,-,N/A,,Clear,210,2014-02-20 01:35:00
8:55 PM,36.9,25.0,62,29.91,10.0,SSW,3.5,-,N/A,,Clear,210,2014-02-20 01:55:00
9:15 PM,36.9,25.2,63,29.91,10.0,SSW,4.6,-,N/A,,Clear,200,2014-02-20 02:15:00
9:35 PM,36.9,25.0,62,29.91,10.0,SW,3.5,-,N/A,,Clear,220,2014-02-20 02:35:00
9:56 PM,36.5,25.2,64,29.91,10.0,Calm,Calm,-,N/A,,Clear,0,2014-02-20 02:56:00
10:16 PM,31.3,23.2,72,29.92,10.0,Calm,Calm,-,N/A,,Clear,0,2014-02-20 03:16:00
10:36 PM,33.1,24.4,71,29.92,10.0,ESE,5.8,-,N/A,,Clear,110,2014-02-20 03:36:00
10:56 PM,33.6,24.8,70,29.91,10.0,SE,4.6,-,N/A,,Clear,130,2014-02-20 03:56:00
11:11 PM,33.1,24.8,72,29.90,10.0,SE,3.5,-,N/A,,Clear,140,2014-02-20 04:11:00
11:31 PM,31.5,24.1,74,29.91,10.0,Calm,Calm,-,N/A,,Clear,0,2014-02-20 04:31:00
11:51 PM,30.4,23.7,76,29.91,10.0,ESE,3.5,-,N/A,,Clear,120,2014-02-20 04:51:00